Wind_Speed
4 3 1 4 6 6 7 6 6 5 6 5 4 2 3 3 5 6 6 6 2 4 5 6 7 7 7 7 9 9 7 7 8 7 5 5 6 6 7 8 8 7 6 4 7 12 14 15 15 15 16 19 21 19 18 19 19 20 22 22 20 18 17 18 18 17 16 15 13 12 11 9 7 7 6 5 4 4 3 2 2 2 2 2 1 2
5 3 5 8 8 7 6 6 5 4 4 3 2 1 2 3 5 7 5 6 1 4 4 3 8 6 4 4 7 9 9 9 11 9 7 8 7 6 7 9 8 5 3 4 7 11 14 16 17 17 17 18 20 19 19 19 19 20 21 22 21 20 19 19 18 17 17 16 13 12 11 9 8 7 6 6 7 6 6 6 6 5 4 3 3 2
4 2 9 9 6 5 4 5 5 4 4 3 2 1 2 3 4 6 5 4 3 1 2 2 6 1 5 2 4 8 9 6 6 7 6 7 7 7 9 8 7 6 5 5 6 9 14 15 17 18 17 18 20 20 20 20 19 20 21 22 22 21 21 19 18 17 16 15 13 11 9 8 7 6 6 6 7 7 7 7 7 6 5 4 4 4
0 5 8 5 7 6 3 3 6 5 3 3 4 3 3 3 1 3 5 4 4 1 2 5 6 3 5 2 3 4 4 1 2 5 4 5 7 7 7 6 6 8 7 6 6 7 10 14 15 16 17 18 20 20 21 21 21 21 22 23 23 23 22 20 18 17 17 16 15 12 10 9 7 6 6 6 6 6 6 6 5 4 4 4 4 5
5 6 2 6 7 7 5 3 6 5 0 2 4 5 3 4 4 4 4 5 5 3 4 6 6 4 3 0 4 3 1 1 2 5 5 4 5 5 5 5 6 7 7 7 7 6 8 11 14 15 16 17 19 21 23 24 23 23 23 23 23 23 22 20 19 19 18 16 16 14 12 11 8 7 7 6 5 5 5 5 3 3 3 3 4 4
7 6 4 5 4 5 6 4 5 7 3 3 5 9 8 6 5 3 3 5 4 4 3 5 4 3 5 3 5 2 2 4 1 4 6 5 5 6 6 6 6 6 6 6 6 5 6 9 13 14 15 17 19 22 24 25 24 23 23 23 23 24 23 22 21 20 18 16 16 14 13 13 11 10 9 7 6 5 4 4 3 3 3 3 3 3
4 2 3 5 4 5 5 4 6 7 5 1 5 8 8 6 3 1 3 3 2 0 1 3 4 1 5 4 4 2 3 6 3 3 6 6 7 7 6 6 6 6 6 5 5 6 7 10 12 14 17 20 21 22 23 25 25 25 24 24 25 25 24 23 23 21 19 17 16 15 14 14 14 13 11 8 7 6 5 4 4 5 6 6 4 3
4 2 3 4 5 5 4 4 6 8 8 2 5 6 7 6 4 4 5 4 2 2 2 4 4 4 0 4 5 3 1 5 6 6 6 6 7 7 7 6 7 7 7 6 6 6 7 11 14 15 18 21 21 22 24 26 27 27 27 26 26 26 25 25 24 23 20 19 18 16 15 15 14 12 11 10 8 7 7 6 6 7 8 8 6 5
3 4 2 4 5 3 4 5 7 10 6 6 5 7 6 5 6 5 6 3 1 1 2 6 4 4 2 5 5 4 1 5 8 9 8 8 8 8 7 7 7 7 7 7 7 8 9 12 16 17 18 19 20 22 25 28 29 29 28 28 27 27 26 25 24 23 21 19 18 17 17 16 13 11 11 10 8 8 8 8 9 8 8 8 7 6
3 5 5 5 3 4 6 4 9 10 4 4 6 6 5 6 5 4 5 3 3 3 3 6 4 3 3 5 3 3 0 5 7 8 7 8 8 7 7 7 7 7 6 7 7 7 10 14 16 16 17 19 20 21 23 26 27 28 28 28 28 28 27 26 24 22 21 19 18 17 17 16 13 12 10 10 9 9 8 8 9 8 8 7 6 6
4 2 3 4 3 5 4 2 5 6 4 4 6 7 6 6 5 4 3 4 4 2 5 6 3 3 1 5 2 1 2 4 5 6 6 6 8 8 8 8 8 7 6 6 6 7 10 14 15 15 16 19 19 20 21 23 24 25 26 27 27 27 27 26 24 22 21 19 18 17 16 16 14 13 11 11 10 10 9 8 8 7 7 6 5 5
6 3 2 3 2 4 5 4 2 2 3 5 4 5 4 4 5 4 4 4 4 2 5 6 3 3 2 3 2 2 6 5 4 7 8 6 7 8 8 8 8 7 6 6 6 6 8 10 12 13 14 15 16 18 19 21 22 22 24 26 26 26 26 26 25 23 22 20 18 17 16 16 15 13 12 11 11 11 10 9 8 7 6 6 5 5
4 3 4 5 2 4 5 4 3 5 5 5 5 5 4 2 3 1 3 1 2 4 3 4 3 2 3 5 3 3 7 7 6 7 9 7 6 6 7 8 7 7 7 7 6 6 6 6 8 10 11 14 16 19 20 21 21 22 23 25 26 27 26 25 24 23 22 21 19 17 16 15 14 13 12 11 11 11 11 9 8 7 6 5 5 6
3 5 5 3 3 2 6 5 2 0 1 4 5 4 4 3 2 1 2 1 1 3 2 4 3 1 3 3 2 4 6 7 7 6 7 7 7 7 7 7 7 7 7 5 4 4 4 5 6 7 10 15 17 20 21 22 22 22 23 24 26 26 23 22 23 24 21 17 14 12 11 10 12 13 11 11 11 11 11 10 8 7 5 5 6 6
1 4 3 3 2 0 3 5 5 5 3 3 4 5 5 4 4 3 3 2 2 2 2 4 2 2 3 3 4 5 4 4 4 4 4 4 2 3 6 6 6 6 5 6 7 8 7 7 9 4 9 14 17 19 20 22 23 23 24 24 24 22 20 19 20 21 18 14 13 12 10 8 12 13 12 12 11 11 12 10 7 6 5 5 6 7
3 4 6 4 1 2 3 3 5 6 3 1 2 5 3 4 5 3 3 4 4 2 0 2 2 2 3 3 6 4 4 7 7 6 7 7 5 4 6 6 7 7 7 8 8 8 8 10 8 7 17 16 17 19 20 22 23 23 24 22 18 16 17 19 21 22 20 17 16 14 10 9 13 15 15 14 12 11 11 8 7 6 5 5 7 7
2 4 5 4 2 2 3 3 3 3 2 1 2 3 4 4 7 6 2 1 3 4 2 1 2 4 2 2 5 5 6 7 8 8 7 6 6 7 6 5 6 7 7 8 7 7 8 10 8 21 26 19 19 20 21 22 22 22 22 18 14 14 17 20 19 14 13 15 15 12 8 10 16 18 17 16 13 11 10 8 7 6 5 5 6 7
4 2 5 2 1 2 1 3 3 2 4 5 3 5 3 3 5 5 3 3 4 3 2 2 1 4 1 1 4 7 7 6 7 7 6 6 6 7 6 5 6 6 5 5 6 3 4 10 16 22 20 15 16 17 18 18 18 18 17 16 16 15 15 13 11 11 12 13 13 12 11 15 19 19 18 17 13 9 9 10 9 7 7 6 6 7
4 1 7 2 2 4 5 6 4 5 3 4 4 4 4 3 2 2 3 2 2 2 2 2 1 2 2 3 3 4 3 5 5 5 5 5 5 5 5 5 6 7 6 4 4 2 2 1 3 7 7 8 9 10 10 10 11 12 12 13 14 14 14 14 12 12 18 19 15 13 14 17 20 19 19 19 13 8 8 11 11 9 8 7 6 7
3 2 4 3 1 3 5 4 2 2 4 4 2 3 2 3 4 2 3 3 4 4 2 0 2 2 4 4 2 2 5 6 2 2 3 3 3 4 3 4 6 8 6 3 3 4 3 5 6 5 4 2 2 2 4 4 6 8 10 12 14 16 16 17 20 23 23 21 19 17 17 20 21 20 20 20 15 11 11 13 13 12 10 8 8 8
3 3 3 4 3 2 2 1 3 4 2 3 3 2 2 2 3 2 2 2 4 5 3 2 0 4 5 3 2 5 6 6 4 3 1 3 3 3 0 2 5 6 6 4 3 4 3 5 8 10 10 8 5 3 2 2 4 7 10 12 14 17 18 19 23 24 23 22 20 17 20 23 23 22 22 21 18 16 16 15 15 15 12 10 9 8
2 3 3 2 4 2 1 3 3 4 4 5 3 2 3 3 4 4 2 0 2 4 4 4 3 5 4 2 4 6 5 6 5 5 2 2 3 4 3 2 4 4 5 5 4 3 3 5 8 11 12 11 9 7 5 5 5 7 9 10 12 15 17 19 23 26 26 25 20 18 22 25 24 24 23 22 22 22 19 17 17 16 14 12 10 9
3 4 4 1 1 1 4 4 3 2 3 6 4 2 4 3 3 5 4 3 2 2 2 4 3 4 4 4 5 5 4 3 1 5 4 2 3 4 4 5 5 5 5 4 4 4 4 5 7 10 12 11 10 8 5 4 4 6 7 9 10 12 14 17 21 25 27 26 23 21 23 25 25 24 23 24 25 23 20 17 17 17 15 14 11 10
2 3 4 1 3 4 5 4 4 3 5 6 4 3 3 2 2 4 5 4 4 3 2 4 2 3 4 5 5 5 6 5 5 5 5 4 4 4 5 5 5 4 4 5 4 4 4 5 7 11 11 9 9 8 6 4 3 5 7 8 10 12 13 14 18 22 25 25 24 23 24 25 24 23 23 25 24 21 19 17 17 17 15 14 11 9
1 1 4 3 2 3 4 5 5 4 4 4 2 3 3 4 4 3 2 3 3 4 4 5 3 4 3 5 7 9 9 9 8 7 6 5 4 4 4 5 5 4 4 5 5 5 5 6 9 12 12 10 8 6 5 5 5 6 7 8 9 11 12 12 15 19 22 23 23 24 25 24 21 20 22 24 22 19 17 17 18 18 17 15 12 9
3 2 3 5 4 3 3 2 3 1 2 2 1 3 4 4 4 2 2 4 2 4 3 5 4 4 3 8 11 11 10 10 9 8 7 6 5 5 5 5 5 5 6 7 7 7 8 9 11 15 15 13 10 6 4 4 6 7 7 8 9 10 12 12 13 15 18 21 22 23 24 23 20 18 20 23 22 19 17 17 18 18 17 15 12 10
4 2 3 6 5 4 5 4 4 3 3 2 1 3 4 3 2 3 3 2 4 4 2 1 4 2 5 9 10 10 9 8 8 8 8 7 6 6 6 6 6 7 7 8 9 9 9 10 11 15 16 16 15 12 8 6 5 6 6 7 8 10 11 12 12 13 16 19 22 23 25 23 19 17 18 20 21 20 19 19 19 18 16 14 11 9
5 3 2 6 5 1 2 2 2 4 5 3 3 4 5 5 5 6 4 1 3 6 1 4 2 5 3 7 7 8 8 7 7 8 7 7 7 7 7 8 10 10 10 10 10 10 10 9 10 13 16 18 19 18 16 13 8 5 4 4 6 9 10 11 12 13 15 18 21 23 23 21 18 16 16 17 18 19 20 20 20 18 17 15 14 14
6 2 1 4 5 5 5 5 5 5 5 4 5 5 5 7 7 5 2 2 1 5 4 2 7 6 2 5 5 6 6 6 6 6 6 7 8 9 10 12 12 12 12 11 11 10 10 9 9 12 17 19 21 21 20 18 15 10 6 3 4 6 9 11 12 13 15 18 20 21 21 19 17 16 16 16 18 19 19 21 21 20 21 20 19 19
5 1 1 5 5 6 6 6 6 7 6 5 7 7 5 8 8 6 3 2 4 5 6 9 12 7 2 3 4 5 4 4 6 7 9 10 10 10 12 12 11 10 10 9 9 8 8 8 10 14 18 20 22 23 22 22 20 16 11 7 3 2 5 8 11 13 15 17 18 20 20 19 18 18 18 18 19 19 19 21 23 23 24 24 23 21
4 2 3 5 5 3 3 4 4 6 4 4 5 5 4 8 8 5 3 4 6 6 5 10 12 7 2 2 4 4 3 6 10 11 11 10 9 10 12 11 9 9 8 7 7 7 7 8 11 15 17 19 22 23 24 24 22 18 14 11 8 4 1 3 7 11 13 14 16 18 19 19 19 19 19 19 19 19 19 20 22 21 21 22 22 23
4 4 2 5 4 1 1 1 3 5 5 3 1 2 3 5 5 3 2 2 3 5 6 7 8 4 1 2 4 5 6 10 11 10 9 8 8 10 11 10 9 8 8 8 7 7 7 7 10 13 15 18 21 23 25 25 24 22 19 14 10 7 5 3 2 5 9 11 13 15 16 17 18 18 18 19 18 18 19 19 19 18 18 19 20 21
2 4 3 4 4 3 1 3 4 6 6 1 3 2 2 3 5 4 4 4 2 4 6 4 4 4 2 2 5 7 9 10 9 7 7 7 7 9 9 8 8 7 7 8 7 7 7 8 10 13 15 18 20 21 22 24 25 25 22 17 12 9 8 6 4 2 3 6 9 12 14 15 16 17 17 17 17 17 17 17 15 15 16 17 17 18
3 5 3 2 3 4 2 1 2 3 4 3 5 4 1 3 6 7 4 3 4 4 3 4 4 4 4 4 7 8 8 7 6 5 5 5 6 7 7 7 7 6 7 7 7 7 9 11 15 18 19 19 20 20 20 20 21 23 23 20 15 12 10 9 6 4 2 1 3 6 9 12 14 16 16 16 15 15 15 14 13 13 14 14 15 16
3 4 2 1 4 4 2 3 3 2 3 3 5 2 3 5 8 11 8 4 6 5 5 7 6 5 5 5 6 8 7 6 6 6 5 5 4 5 6 6 7 7 7 7 7 8 11 14 16 19 22 22 21 22 21 19 17 18 19 21 20 18 17 15 10 8 6 4 3 3 4 6 8 9 11 13 13 12 10 8 7 8 9 11 12 13
4 3 2 2 3 3 3 3 3 3 3 3 4 3 4 3 4 8 7 5 5 4 3 5 4 3 4 4 4 5 5 5 5 6 6 5 4 5 6 5 5 6 6 7 8 10 13 14 14 15 18 19 20 22 23 20 18 16 15 17 19 19 20 19 17 14 11 8 7 6 6 5 5 5 6 7 8 7 6 5 5 5 6 7 8 9
5 4 3 2 1 3 4 2 0 2 3 2 1 0 1 1 1 3 4 1 3 3 1 4 4 2 2 1 1 0 2 3 4 5 5 5 5 4 4 4 4 6 8 10 11 13 15 16 16 15 16 17 17 19 21 20 20 18 15 15 16 16 16 16 15 15 16 14 11 8 7 7 6 6 6 6 7 7 7 6 6 7 7 8 9 9
4 2 3 3 2 3 5 3 2 2 2 4 4 3 2 1 2 4 5 1 3 4 2 3 4 3 2 3 3 1 3 4 3 3 4 4 5 5 5 6 7 9 11 13 14 16 18 19 18 18 18 18 17 18 18 18 18 18 16 15 14 14 14 12 9 8 10 12 13 10 7 7 7 7 9 9 9 9 9 8 8 8 8 8 9 10
6 3 3 4 2 3 5 4 3 2 3 4 5 5 5 2 3 4 5 1 2 3 3 3 5 3 3 3 3 3 4 3 1 4 4 4 5 5 5 6 9 11 12 13 14 16 17 18 18 18 18 18 18 18 18 17 17 16 15 15 14 14 16 15 11 9 10 11 12 10 8 6 6 8 11 12 11 11 10 10 10 10 10 10 10 11
6 4 4 4 3 2 4 3 2 3 2 2 3 5 5 1 4 6 2 4 3 2 1 3 4 2 2 3 4 5 4 3 4 4 4 4 5 6 5 7 9 11 12 14 15 16 16 16 16 17 18 18 18 17 16 17 18 17 16 15 14 13 15 16 15 13 13 14 14 11 8 7 6 8 11 13 12 11 11 11 11 11 10 10 11 12
4 3 2 3 3 3 3 3 0 2 3 2 4 6 4 2 4 3 4 6 2 1 0 3 3 2 1 2 3 3 2 2 3 4 5 5 6 7 9 12 13 13 14 15 16 17 16 15 15 15 16 17 17 17 16 16 16 17 17 16 15 13 13 14 15 14 13 13 14 12 10 10 9 8 10 14 13 11 11 11 10 11 10 10 11 12
2 3 2 2 3 2 3 3 1 2 2 2 4 6 2 3 3 4 5 4 2 0 1 1 1 0 1 2 2 2 2 4 4 4 5 5 4 6 9 12 14 15 16 16 17 18 18 17 16 16 16 16 16 16 17 17 17 17 17 17 17 16 14 13 14 14 14 14 14 13 13 13 12 10 10 14 15 14 13 11 10 9 8 8 9 8
1 1 2 1 1 2 2 3 2 2 2 3 3 4 3 2 4 4 2 2 2 1 0 1 2 2 1 2 1 1 3 4 4 4 5 5 5 7 10 13 14 15 17 18 18 18 19 18 19 19 20 19 18 17 17 18 19 19 19 19 19 18 16 16 15 14 14 13 14 15 15 14 13 11 10 12 14 15 14 13 12 10 8 7 7 7
1 2 1 1 0 2 2 1 2 3 4 4 1 2 2 2 3 4 3 2 1 1 1 1 2 2 1 2 4 4 3 4 3 3 4 5 6 8 11 13 15 17 17 18 19 19 19 18 20 22 23 23 21 19 18 18 19 20 21 21 20 20 20 20 18 17 16 14 14 15 15 16 16 14 11 9 11 13 13 11 11 11 11 10 9 8
1 2 3 1 1 2 2 2 3 1 3 4 4 4 3 3 3 3 3 3 1 1 1 1 2 3 2 2 4 4 4 5 5 5 4 4 5 7 9 12 14 15 16 18 20 21 21 20 21 22 24 25 23 22 21 20 19 21 22 21 20 20 22 22 21 20 18 16 15 14 14 17 19 19 16 13 12 13 14 14 13 12 12 12 11 10
0 2 4 3 3 3 4 3 1 1 1 3 4 4 3 3 2 2 3 2 1 1 1 1 1 2 2 2 3 4 4 5 6 6 6 6 6 9 12 13 14 15 16 17 18 20 21 22 22 22 23 25 25 24 24 23 21 22 24 23 21 21 22 22 22 21 20 19 17 14 13 13 16 19 21 21 20 18 17 17 16 12 11 12 12 11
1 1 4 4 3 3 2 2 2 1 1 1 2 2 3 2 1 2 3 2 2 2 1 0 1 1 2 3 2 3 4 4 5 6 6 5 7 10 13 14 16 17 18 18 19 20 20 20 20 21 22 24 25 24 25 25 25 25 26 25 24 23 23 23 22 22 21 20 19 18 16 13 13 16 20 23 26 25 24 23 21 17 15 15 14 14
1 2 4 4 2 1 2 4 2 2 1 2 1 2 2 2 2 2 2 1 2 3 3 3 4 3 2 3 3 1 2 3 4 5 5 5 7 10 12 14 17 19 20 21 21 21 20 20 20 21 22 23 24 24 25 26 26 26 26 25 24 24 24 24 24 22 21 21 20 21 20 17 14 13 15 18 21 24 26 27 26 25 25 24 22 21
1 2 2 3 3 3 2 2 3 3 4 5 3 2 3 2 1 2 3 3 4 4 5 5 5 5 4 3 4 2 2 4 4 5 5 6 8 11 13 15 18 20 21 23 23 22 21 21 22 22 23 24 24 24 24 26 27 26 25 25 23 22 22 24 25 24 23 22 21 21 21 20 18 15 12 12 14 16 19 20 20 21 23 25 25 24
2 2 1 4 4 1 2 4 5 3 1 4 4 4 4 2 2 2 3 4 3 3 4 4 3 3 2 1 0 1 2 4 6 6 6 7 10 13 16 18 20 21 22 23 23 23 22 22 23 24 24 24 24 24 25 26 27 27 25 24 23 21 22 24 26 26 25 25 23 23 21 20 20 19 16 13 12 11 12 14 17 18 19 21 22 20
2 3 3 4 4 4 5 6 6 4 2 4 5 5 4 1 2 1 1 1 2 2 4 4 3 2 3 3 3 3 4 6 8 8 7 9 14 16 17 18 19 21 22 23 22 22 22 23 23 24 24 25 25 25 25 26 27 27 26 25 24 23 23 24 25 26 27 26 25 24 23 22 22 21 20 18 16 13 10 11 15 17 18 19 20 19
Wind_Direction
111 110 179 200 210 219 213 186 172 170 136 129 131 151 195 218 275 266 263 280 143 145 241 218 185 207 217 193 177 173 165 173 181 183 183 169 164 173 185 194 197 204 217 205 190 197 196 194 196 196 197 195 189 191 195 194 198 201 201 203 204 203 200 194 193 194 193 189 187 190 192 189 182 175 171 166 159 148 143 148 133 120 124 130 164 204
67 118 227 220 205 205 198 174 150 127 107 101 132 233 276 219 248 259 256 300 347 163 256 206 169 212 239 196 176 164 169 188 189 186 186 183 178 175 191 201 196 192 187 170 177 190 195 192 187 188 196 197 191 189 194 196 198 201 203 204 204 202 201 198 196 193 191 189 188 190 191 184 172 165 161 149 140 132 122 114 105 105 103 105 120 144
24 231 242 226 184 147 135 136 132 129 111 89 111 163 270 241 270 289 272 310 342 179 274 133 139 263 306 253 198 182 184 197 191 184 182 185 185 185 198 203 190 184 186 185 180 184 192 190 184 186 192 197 195 193 195 197 199 199 201 204 205 204 201 199 199 196 189 188 190 192 187 179 168 158 151 145 140 134 127 118 108 104 96 98 111 113
280 255 250 201 144 130 122 122 116 99 87 111 126 142 246 264 317 292 283 322 352 48 112 108 95 1 335 344 262 227 197 71 104 142 149 182 196 202 210 206 191 191 193 195 190 183 188 186 184 188 191 193 195 194 194 197 199 199 201 203 205 204 201 198 198 195 188 186 187 184 179 175 168 159 159 158 150 142 136 126 113 102 93 97 114 115
223 239 188 122 141 156 155 147 132 122 237 235 179 170 217 251 215 224 291 337 350 22 76 82 58 352 354 24 251 260 246 316 101 138 154 179 189 201 218 213 199 194 193 196 195 188 186 183 184 189 192 192 192 193 195 198 200 200 201 201 202 201 198 196 195 193 191 189 185 177 171 172 170 168 175 179 174 161 146 135 120 96 86 92 107 116
250 238 161 143 173 171 158 180 178 163 181 280 225 202 195 201 219 240 345 16 31 17 22 66 65 320 324 286 238 255 244 242 206 161 181 183 179 190 207 204 194 191 192 195 194 185 184 181 181 186 192 193 194 196 197 199 201 202 200 198 196 196 194 193 193 193 196 197 194 188 182 180 180 178 181 183 179 172 157 137 113 97 99 103 109 126
254 240 138 152 162 159 168 224 220 167 129 324 245 205 176 166 171 93 55 63 91 255 324 79 114 209 318 293 264 309 251 242 255 214 205 196 190 195 204 199 188 189 187 185 184 175 179 183 181 185 191 193 195 197 198 198 199 201 199 195 193 194 193 193 193 195 199 202 202 202 199 196 193 185 178 177 174 167 159 136 110 106 111 114 118 129
199 148 80 106 110 125 164 238 228 149 119 240 234 153 139 151 149 122 92 89 182 224 328 18 92 120 339 268 286 349 277 265 268 240 226 213 205 199 200 199 190 186 181 180 184 178 183 190 190 191 192 194 196 195 195 196 197 198 197 194 193 195 196 195 195 196 199 201 200 200 201 200 197 188 178 178 175 162 154 137 122 116 115 117 121 122
189 173 193 130 96 124 194 215 192 148 138 239 203 134 133 142 135 119 95 80 14 107 296 326 34 99 239 273 317 19 71 269 263 241 230 218 213 202 195 199 195 190 184 181 187 183 185 193 195 195 195 196 196 195 195 195 195 196 195 194 195 197 199 198 197 195 197 201 199 196 198 195 188 184 180 181 179 166 156 140 129 123 118 116 118 118
233 205 199 141 123 216 220 209 178 162 170 213 152 101 66 70 77 80 93 96 31 53 238 292 0 104 254 286 324 29 238 256 260 251 234 215 211 201 192 195 192 189 187 185 188 184 187 193 194 194 196 196 196 197 198 196 195 195 194 194 196 199 201 201 199 196 196 199 199 198 198 194 186 182 181 182 181 175 167 150 138 131 124 118 115 116
283 272 187 150 185 201 178 139 173 163 135 133 107 66 46 35 32 42 54 83 65 359 255 271 306 127 228 284 248 183 252 257 269 287 277 224 203 196 191 189 188 186 185 183 182 178 179 185 189 192 195 195 195 199 201 200 199 197 195 196 198 201 203 202 200 200 201 203 204 204 204 203 196 189 186 187 185 182 178 164 151 143 134 126 121 124
332 338 246 253 224 157 109 73 51 40 76 104 86 73 74 5 11 29 359 48 94 267 261 275 289 128 148 255 216 252 282 286 273 275 280 254 212 203 190 182 182 177 175 178 176 171 163 166 177 185 191 191 194 200 205 207 205 202 201 201 201 202 203 204 204 203 205 205 207 210 214 212 206 200 198 199 198 191 185 175 166 159 149 141 139 140
324 257 270 307 272 153 113 78 31 11 32 83 89 85 92 19 11 31 317 30 154 237 258 292 291 155 206 232 213 269 280 284 269 255 268 273 251 222 190 178 175 167 172 176 171 164 152 149 156 165 177 187 195 203 207 211 212 210 208 205 205 205 205 205 203 203 206 207 209 212 215 215 211 208 209 213 210 200 193 188 181 177 171 165 160 155
308 301 317 319 282 180 129 128 137 329 74 132 141 128 119 102 81 189 267 333 219 238 270 301 285 225 264 269 303 304 277 274 280 275 274 271 248 213 180 167 162 159 161 155 135 107 86 72 86 127 177 191 200 206 207 211 215 215 213 211 209 207 204 204 203 202 203 199 196 197 201 213 217 217 222 223 217 212 209 201 194 197 196 187 174 164
177 309 281 202 241 280 155 165 162 154 148 171 161 130 138 154 141 186 215 168 192 229 307 305 285 167 207 281 314 303 292 305 324 334 342 335 289 173 145 134 133 128 111 100 87 79 76 69 76 125 209 205 205 210 209 211 214 216 217 215 211 205 201 202 200 197 191 181 180 183 182 205 222 226 233 228 219 219 218 209 203 210 210 193 179 173
149 242 257 254 234 151 177 192 139 116 100 228 136 109 149 181 141 132 170 166 165 134 13 281 245 207 211 280 311 327 357 3 5 7 24 30 21 63 95 107 116 111 104 105 102 104 103 81 78 236 242 228 214 213 211 211 212 214 217 214 207 199 196 199 199 195 187 178 180 180 176 204 223 228 233 230 223 219 219 220 222 221 216 197 184 184
132 254 284 319 329 148 172 189 151 138 163 177 132 157 214 175 120 110 130 48 80 122 194 258 268 303 337 314 318 5 27 11 8 7 20 38 44 61 71 80 99 104 111 118 118 125 121 115 176 234 242 233 220 217 214 212 212 215 216 209 198 195 200 201 195 177 151 147 160 167 176 213 224 226 230 229 226 221 215 219 228 226 219 204 194 197
144 257 297 353 54 330 5 99 64 38 124 128 176 200 189 111 99 104 109 18 49 138 246 348 299 299 17 184 320 17 30 3 5 5 7 34 58 71 72 73 77 67 61 83 96 112 166 170 200 229 241 235 226 221 217 213 212 213 212 205 196 196 194 174 130 102 118 146 170 184 197 215 220 222 223 223 226 230 221 216 221 226 219 211 207 207
122 228 293 288 175 309 354 69 58 350 43 120 171 164 115 123 145 93 117 138 107 154 260 348 345 265 200 215 319 19 356 326 356 17 13 32 65 82 91 98 100 86 65 61 87 70 319 183 220 259 270 258 242 232 223 212 205 200 196 192 186 182 175 155 149 175 184 184 197 207 204 212 222 222 217 217 219 224 228 225 225 227 220 217 221 220
99 145 271 278 220 320 4 62 142 300 5 44 77 55 50 129 154 151 138 150 143 154 193 344 7 280 226 217 264 294 272 279 306 42 6 359 65 95 120 119 113 111 114 142 131 99 61 54 54 48 31 336 280 242 226 203 189 179 173 172 169 170 176 180 190 196 193 194 209 217 205 209 225 226 215 215 213 204 216 231 233 230 225 223 225 227
75 131 220 285 333 24 31 15 200 195 127 72 52 34 17 63 117 145 92 95 127 140 164 152 205 270 254 227 275 292 274 256 223 173 256 313 30 57 88 117 109 116 124 125 94 79 74 70 69 67 62 57 58 61 75 119 154 156 156 159 164 174 184 190 192 190 196 206 214 218 210 208 220 224 213 212 214 209 212 224 230 231 230 228 230 235
114 143 180 299 4 51 266 294 273 228 173 138 124 134 145 123 123 125 112 272 107 120 164 155 173 263 279 289 296 296 273 257 227 168 162 327 22 29 358 35 75 84 98 100 89 76 53 46 60 63 60 59 61 64 77 91 119 139 150 157 166 182 191 194 192 192 200 210 213 217 215 209 214 218 211 210 217 220 220 221 223 229 232 230 232 241
138 114 102 54 357 248 266 287 311 313 102 107 104 124 135 116 105 125 171 216 101 94 159 116 125 248 282 317 317 314 296 273 197 138 121 51 21 39 30 24 33 38 46 57 59 52 37 30 52 62 55 49 49 53 68 91 121 142 159 170 179 193 201 202 201 200 204 210 214 216 213 211 213 215 212 212 217 223 228 227 222 225 230 230 228 231
107 90 82 32 314 314 303 311 335 3 65 75 55 68 104 88 93 143 174 175 134 150 150 86 112 241 296 332 344 358 1 28 51 62 78 54 6 31 54 43 41 37 28 36 35 30 29 30 48 58 56 51 50 48 54 82 131 157 170 180 189 200 209 210 208 210 212 214 217 216 213 214 217 217 216 219 221 224 230 233 227 225 229 232 231 228
123 82 95 97 30 349 334 337 339 346 37 69 44 32 74 87 85 117 141 78 113 183 158 127 181 238 295 352 11 18 22 35 36 35 59 54 12 20 36 35 38 31 25 32 22 6 7 15 27 37 42 48 57 62 72 99 123 144 162 177 187 194 202 207 210 214 218 219 220 218 216 218 220 219 220 224 228 228 229 232 229 226 227 231 232 229
109 87 102 124 144 170 188 254 262 253 23 36 58 42 57 80 84 137 134 83 132 193 143 135 187 231 324 1 12 14 19 25 17 19 38 38 21 22 23 23 23 17 19 19 12 5 5 8 13 17 22 28 37 51 83 111 118 125 145 165 176 183 190 198 205 211 218 223 223 219 217 218 218 217 220 227 231 232 231 231 228 224 223 224 225 228
104 72 85 116 134 182 197 232 236 156 84 31 351 32 42 50 60 91 94 108 176 159 96 208 179 131 5 357 3 4 11 20 13 14 24 23 19 22 24 28 28 23 21 19 17 13 9 10 10 10 12 15 18 23 33 52 83 104 127 151 166 178 185 192 201 209 215 219 220 217 216 216 215 215 220 227 231 233 233 230 226 223 218 215 220 234
97 51 50 94 76 317 223 270 336 85 83 54 359 354 12 26 42 76 94 201 152 122 184 272 124 94 11 343 352 355 3 19 22 20 25 23 22 29 34 37 34 28 24 24 21 17 14 14 10 9 11 14 16 19 22 27 37 55 88 135 160 174 184 192 200 207 212 213 212 212 213 213 215 219 222 226 230 232 232 230 227 228 229 229 233 241
106 61 336 80 45 14 19 9 29 76 80 55 30 0 19 43 47 74 99 294 89 134 188 176 84 82 2 339 352 352 2 25 32 28 35 37 36 43 47 45 40 34 30 29 25 21 23 19 14 15 16 18 20 20 20 21 21 23 36 77 145 166 181 194 201 205 208 208 208 209 211 213 218 224 227 228 228 228 229 229 227 231 240 244 241 239
107 85 184 109 67 29 20 3 30 69 67 47 30 3 26 69 69 72 71 24 66 105 136 112 91 76 0 336 353 356 5 44 55 44 43 42 40 48 54 52 47 42 40 37 31 28 30 26 23 25 24 23 22 21 20 19 17 15 17 22 34 150 180 194 204 207 207 207 209 209 212 217 222 225 228 231 232 231 230 230 228 230 238 240 237 236
93 146 183 109 83 33 6 358 35 65 62 46 33 1 24 72 69 54 54 67 76 90 114 106 93 76 14 3 22 18 36 67 62 51 46 43 40 51 57 53 47 44 39 34 31 28 29 29 27 26 26 23 21 22 23 22 20 16 12 11 10 3 333 208 211 213 210 208 209 210 211 215 219 222 225 229 232 233 232 231 230 231 233 231 229 233
71 128 148 89 102 211 274 115 121 99 83 66 33 327 21 70 83 59 33 53 107 139 138 110 102 115 142 50 52 47 60 68 63 56 55 49 44 53 58 53 48 45 37 30 27 24 23 24 25 25 26 25 24 25 23 22 23 20 12 5 359 358 356 342 256 226 221 215 211 210 208 209 212 215 219 224 227 229 229 229 229 229 230 228 227 228
81 132 148 114 132 177 160 141 141 113 105 126 263 275 48 100 130 107 43 11 48 133 148 140 149 169 164 107 90 72 66 69 65 58 59 55 52 55 58 55 50 44 39 35 29 25 22 18 18 21 24 24 25 26 24 23 24 22 17 10 358 352 353 349 358 358 235 221 215 213 212 213 213 214 217 220 222 221 221 223 224 222 225 226 225 225
78 112 138 125 123 147 154 97 85 107 142 224 273 265 172 144 132 110 79 14 24 65 122 128 126 126 112 109 108 94 84 84 80 63 57 58 57 55 52 49 45 40 36 34 30 26 23 23 22 20 18 18 20 22 23 23 23 22 24 23 15 6 3 353 348 357 355 252 218 217 219 223 226 225 224 222 223 223 224 227 228 227 229 231 229 229
77 84 111 84 106 137 122 56 81 195 236 288 311 308 127 126 116 103 87 41 32 52 84 95 100 117 125 126 123 115 111 112 101 77 57 52 56 57 48 33 26 29 26 20 20 18 17 24 28 23 18 16 16 18 20 21 19 17 20 23 22 20 17 13 6 353 335 312 295 274 245 233 231 230 227 225 228 230 226 225 224 222 224 226 228 230
116 115 117 73 88 135 114 95 153 229 292 12 23 40 93 105 91 87 73 23 9 29 75 99 106 131 140 143 149 137 130 119 93 70 54 46 48 56 53 32 15 18 17 11 12 11 11 17 24 22 16 13 13 16 17 16 12 9 9 10 12 13 12 13 16 14 3 344 317 297 284 266 246 232 216 207 209 206 191 174 166 169 178 187 198 208
119 129 120 87 97 135 124 125 155 355 3 66 110 45 105 8 353 107 109 14 332 346 51 118 110 85 108 117 298 202 127 89 58 40 28 29 33 40 50 41 25 18 15 14 13 12 12 13 13 13 12 12 13 13 12 10 5 3 5 3 0 0 359 2 9 15 18 16 0 328 294 272 255 237 220 206 195 181 167 155 145 143 150 160 167 171
71 119 155 153 150 106 100 91 44 21 289 224 221 264 327 319 221 148 116 80 311 334 358 118 109 67 54 39 356 9 91 74 42 337 330 357 8 9 11 14 16 15 11 10 8 5 6 5 3 2 1 3 6 6 5 3 358 357 360 360 356 352 351 355 359 3 15 18 7 350 316 280 257 231 215 206 193 179 169 163 156 150 147 150 151 151
40 42 100 116 121 106 111 126 161 193 230 227 229 276 316 291 182 110 79 308 272 350 22 101 107 79 63 57 42 67 85 90 228 264 292 334 346 344 343 348 359 6 5 5 3 358 357 357 354 352 351 352 354 354 353 351 348 348 350 351 349 342 340 344 342 333 329 330 334 343 344 316 273 235 213 200 191 189 186 177 168 160 153 156 157 151
25 17 48 97 126 122 119 135 186 203 228 251 257 285 305 230 123 94 91 246 255 357 31 115 113 104 76 48 44 71 95 149 215 256 299 336 337 334 341 347 351 356 357 1 2 359 355 354 351 347 345 345 345 344 342 338 336 336 337 339 340 335 331 330 329 324 318 311 306 312 326 323 294 252 226 212 202 195 189 179 171 165 159 159 160 155
15 15 51 110 106 85 108 114 337 261 251 274 292 296 301 125 116 122 205 227 243 346 202 131 122 152 131 52 46 84 122 210 243 285 319 342 341 336 345 349 350 353 355 358 0 0 358 354 349 343 339 338 338 336 335 332 325 323 325 325 326 328 324 316 312 310 308 305 299 292 291 294 293 277 240 226 219 207 194 186 179 174 169 161 157 153
18 17 23 72 71 61 114 113 86 261 269 336 311 299 317 119 160 208 216 209 194 250 308 59 59 178 117 80 91 159 245 290 300 312 325 337 337 331 340 347 350 353 355 355 358 359 356 351 346 342 336 334 332 329 329 327 318 313 316 313 310 315 318 313 308 304 298 294 289 285 280 275 276 279 257 233 223 215 209 203 194 186 181 174 168 161
94 70 28 59 92 74 75 79 111 199 290 340 324 315 5 102 177 191 164 141 154 148 34 21 355 326 15 30 352 255 275 302 311 320 330 340 345 344 347 350 350 349 349 351 352 353 351 345 340 336 331 329 328 325 325 324 317 311 309 304 302 305 309 309 310 307 300 292 282 278 276 270 265 268 260 236 222 218 216 213 209 209 214 214 205 194
54 111 156 215 100 96 108 127 160 207 284 317 40 103 62 92 154 154 122 92 116 144 148 32 354 340 331 344 336 326 315 321 334 348 349 348 349 347 346 344 343 341 340 339 339 339 340 337 330 326 323 322 321 320 320 322 321 315 307 302 302 305 303 302 304 303 301 297 286 273 265 261 261 265 261 238 218 212 211 213 217 214 214 220 221 210
354 110 133 121 55 88 125 150 153 193 301 347 58 88 83 68 78 113 113 92 86 154 140 79 0 337 336 339 336 336 336 337 347 358 355 345 336 334 332 330 330 329 328 328 328 330 330 327 322 319 316 314 314 314 312 314 315 312 306 302 303 304 301 300 301 299 296 296 292 281 264 253 252 255 254 241 228 219 213 216 219 209 200 205 212 209
309 80 77 86 107 82 59 57 82 86 12 33 53 66 81 77 62 90 103 107 201 190 145 105 311 313 340 11 353 336 335 343 348 346 340 336 329 325 325 324 323 324 324 322 323 324 323 320 317 314 311 309 309 309 307 306 303 299 298 298 298 299 299 299 299 296 293 289 286 286 284 266 251 249 247 239 235 233 225 217 213 206 198 199 201 202
284 81 71 91 123 110 96 200 205 145 141 131 83 86 92 84 83 112 124 168 194 152 134 55 80 55 44 62 53 344 331 339 342 333 326 324 320 319 321 320 320 322 321 319 319 319 318 314 311 309 307 305 306 307 305 301 297 293 292 292 292 293 296 297 295 293 290 285 279 279 284 282 262 250 246 239 234 232 228 225 226 226 219 208 199 195
325 82 88 93 93 95 170 195 178 75 358 325 54 137 146 89 51 50 67 93 90 83 71 69 94 105 87 90 118 144 310 304 302 311 314 312 310 311 313 314 316 318 318 318 318 317 314 310 306 304 302 300 302 304 302 298 295 293 292 291 289 290 291 292 291 290 287 283 279 275 275 275 272 261 249 240 235 230 227 229 232 232 227 222 216 210
17 63 108 104 80 66 96 133 96 48 345 323 326 264 226 187 117 4 17 50 76 94 91 79 91 119 132 148 166 170 314 305 302 311 313 309 309 310 312 314 315 315 315 317 317 315 312 309 305 302 300 299 301 301 298 295 294 293 291 290 288 286 285 284 285 286 283 279 276 273 270 268 269 268 259 247 240 234 229 229 232 233 231 228 223 218
56 94 130 102 100 132 211 183 153 127 273 266 250 243 237 188 108 7 13 50 73 119 126 99 80 95 113 145 245 1 337 309 311 315 308 304 307 310 313 315 314 313 313 313 313 311 308 306 303 301 300 300 301 300 296 294 294 293 291 289 285 281 276 275 277 279 278 275 273 270 268 266 263 260 259 257 253 246 237 232 231 231 228 223 219 218
113 155 163 138 152 213 220 189 160 138 189 233 218 219 235 179 87 63 242 126 118 147 137 112 83 14 336 326 318 306 284 285 303 311 304 304 308 309 310 310 308 307 309 310 309 307 306 304 302 300 298 299 300 298 294 292 292 292 291 289 284 278 272 268 268 269 269 270 270 266 264 264 262 256 251 247 243 240 238 234 233 233 231 227 222 219
Height
754 759 763 762 760 758 757 761 762 763 765 765 768 770 772 774 768 759 754 749 752 758 758 758 756 749 750 758 759 756 759 761 763 765 766 768 770 771 773 773 774 774 774 774 776 778 779 781 783 784 785 786 787 788 789 791 792 795 796 798 799 801 803 804 804 806 807 807 809 810 811 812 813 813 814 815 815 816 817 818 819 820 821 822 822 822
755 762 762 755 755 756 758 764 765 766 767 766 769 769 772 775 765 754 751 750 752 755 758 761 756 751 757 761 759 757 760 761 761 763 766 767 769 770 772 773 773 773 774 774 775 776 778 779 781 783 785 786 786 786 787 789 791 793 795 796 798 800 801 803 804 805 806 807 808 809 810 811 813 814 814 815 816 817 817 818 819 820 821 822 822 823
760 760 754 752 759 761 762 766 765 765 767 767 772 772 769 769 763 755 752 753 754 752 755 761 758 758 765 765 761 759 759 759 760 762 765 767 769 770 771 772 774 774 773 774 774 776 777 778 780 781 783 785 785 786 787 789 791 792 794 796 797 799 800 802 803 804 805 806 807 809 810 811 812 814 815 816 817 817 818 819 820 820 821 822 823 824
764 756 750 754 760 760 762 766 765 766 767 768 772 771 765 764 764 758 751 753 757 755 756 759 761 764 766 765 764 761 761 761 762 764 765 767 769 770 771 772 773 774 773 773 774 776 776 777 779 780 782 783 784 785 786 788 790 792 793 795 797 798 800 801 802 804 805 806 807 809 810 811 813 814 815 816 817 818 818 819 820 821 821 822 823 824
758 752 752 756 757 755 758 764 765 765 766 769 770 766 760 759 758 757 755 754 755 758 757 756 761 766 766 768 768 763 762 763 763 765 766 768 769 770 772 772 773 773 772 773 774 775 776 777 778 780 781 783 784 785 786 787 789 791 793 795 796 798 799 801 802 803 804 805 807 809 810 812 813 814 815 816 817 817 818 818 819 820 821 822 823 824
752 750 752 753 755 756 756 760 761 761 764 766 763 756 752 752 752 754 758 757 755 758 760 761 767 771 766 764 767 765 764 764 765 766 766 768 770 770 771 772 772 772 772 773 774 775 776 777 778 779 781 782 783 784 786 788 789 791 793 795 796 797 798 800 801 802 803 804 806 808 809 811 812 813 815 816 817 817 818 818 819 820 821 822 823 824
749 749 751 750 754 758 757 757 757 758 764 763 756 752 752 752 751 752 755 757 759 761 765 766 768 773 768 758 762 767 766 766 766 766 766 767 768 768 769 770 770 771 771 772 774 775 776 776 777 778 779 781 782 784 786 787 790 791 793 794 795 796 798 799 800 802 803 804 806 807 809 810 811 813 815 816 817 818 818 818 819 820 821 822 823 824
746 747 751 750 752 757 758 754 752 754 759 757 753 753 753 752 751 752 752 756 762 763 764 765 762 769 771 761 764 768 764 765 765 764 766 766 765 766 766 767 768 768 769 772 773 774 774 775 775 776 778 780 782 783 785 787 788 790 792 793 794 796 797 798 800 801 802 803 805 807 809 811 812 813 815 816 818 818 819 819 819 820 821 822 823 824
746 745 745 745 748 753 750 745 748 750 750 749 751 754 752 751 753 754 753 757 767 767 762 764 764 769 774 766 766 769 764 763 761 760 764 763 763 765 764 765 766 766 768 769 771 772 772 773 773 775 777 780 782 784 785 786 787 789 791 792 794 795 796 798 799 800 802 803 805 807 809 811 813 815 815 817 818 819 819 819 820 821 821 822 823 824
744 742 739 740 743 744 739 741 746 743 744 748 752 755 754 757 760 759 758 757 764 770 766 769 771 771 774 768 764 768 765 761 756 753 759 761 761 762 763 763 764 765 767 768 770 770 771 772 773 775 777 779 782 784 785 787 788 789 791 792 793 794 796 797 799 800 802 803 805 807 809 811 813 815 816 817 818 819 819 819 820 821 822 823 823 824
741 740 739 737 737 736 734 743 750 744 746 749 749 751 753 758 760 763 766 762 767 776 772 776 778 772 775 771 764 764 764 761 756 751 753 757 759 759 760 761 762 764 766 767 769 769 770 772 774 776 777 779 782 784 786 788 789 790 791 792 793 794 796 797 799 800 801 803 805 807 809 810 812 814 815 817 818 819 819 819 820 822 823 823 824 825
741 740 739 733 731 734 733 742 750 747 748 749 746 751 757 763 765 767 770 768 777 784 777 780 783 775 774 771 766 768 766 765 763 757 751 752 756 757 757 759 760 762 764 766 767 768 770 772 774 777 778 781 783 784 787 788 789 790 791 792 792 794 796 798 799 800 801 802 804 807 808 810 812 813 815 816 818 819 819 820 821 822 823 824 825 825
741 737 738 733 730 732 733 741 749 747 748 748 749 755 764 775 778 778 782 782 784 784 779 783 783 775 770 766 769 775 770 766 766 763 758 757 758 757 756 758 758 760 763 764 766 768 770 773 775 778 780 782 783 784 787 788 790 790 790 791 792 793 796 799 800 800 801 803 805 808 810 812 814 815 816 816 818 819 820 821 822 823 824 824 825 826
746 740 737 733 731 730 731 740 747 749 749 748 750 754 765 781 788 792 800 799 790 781 781 785 779 772 769 765 769 774 770 767 766 764 763 760 758 755 755 757 758 760 762 764 768 771 774 777 778 780 781 782 783 784 786 788 789 790 791 791 792 794 798 800 800 801 802 804 807 810 814 817 819 818 818 818 819 821 822 822 822 824 824 825 826 827
755 751 738 732 733 730 730 734 736 740 745 749 751 751 758 768 775 786 791 787 785 784 783 782 776 773 770 766 768 768 767 766 764 762 762 759 758 756 755 758 759 763 765 768 772 774 777 779 780 782 782 781 782 784 785 787 788 790 790 791 793 796 799 800 801 802 803 804 808 811 815 820 823 822 821 821 820 822 823 823 823 824 825 825 826 827
760 753 735 731 734 730 729 731 730 734 744 756 756 752 755 753 757 779 791 785 784 785 784 782 778 777 773 767 767 766 764 765 764 763 762 761 762 760 760 761 763 765 768 769 771 772 774 776 779 782 782 781 781 783 785 786 787 789 790 793 796 797 799 799 800 800 800 802 807 811 813 818 822 822 822 822 821 822 823 824 824 824 825 826 827 828
758 749 734 733 734 729 730 730 728 731 741 755 756 751 754 752 751 772 793 795 789 782 786 791 782 776 775 769 766 765 764 765 766 766 766 765 764 764 765 766 767 767 769 769 770 771 772 773 778 781 779 778 779 781 783 785 786 789 791 794 797 797 798 798 799 801 803 805 809 812 813 817 819 820 821 822 822 822 822 824 825 825 826 827 828 829
750 747 737 735 734 731 732 731 729 731 736 747 751 747 752 756 754 762 779 793 792 784 788 794 787 782 780 773 768 766 766 768 769 769 770 769 767 768 770 770 771 772 773 772 772 774 774 772 775 778 777 778 779 781 783 784 786 789 791 794 795 797 799 801 804 807 810 811 810 810 810 814 816 817 819 821 823 823 822 823 824 825 826 827 828 830
747 748 742 738 738 734 732 732 735 738 737 739 741 742 748 755 758 763 774 784 789 792 793 793 795 791 782 775 770 769 771 771 771 772 772 772 771 772 772 772 772 772 775 778 777 778 779 777 778 780 780 781 782 783 784 785 787 789 791 793 795 798 800 802 804 806 807 808 808 808 809 812 814 815 817 820 822 823 823 823 824 825 827 827 829 830
746 750 747 740 740 738 735 737 741 742 741 740 741 744 749 753 758 764 770 771 775 791 798 794 793 787 778 777 774 772 775 773 772 773 774 775 774 773 773 773 772 771 775 781 779 779 781 781 782 783 782 784 785 785 786 786 788 789 791 793 795 797 798 799 801 803 804 805 805 807 808 811 813 814 816 819 821 821 821 822 824 825 827 827 828 830
745 751 750 742 739 742 744 746 746 743 741 743 744 748 752 757 762 763 770 775 772 780 792 793 791 783 778 783 780 775 776 774 773 773 774 777 777 775 776 774 772 772 775 778 777 778 780 781 782 783 783 786 786 786 787 787 789 790 792 794 795 796 797 798 800 802 804 804 804 806 808 810 813 814 816 818 819 819 819 820 822 825 827 827 828 829
743 748 750 747 746 749 750 750 750 745 741 742 746 752 756 759 761 761 772 783 777 776 785 786 784 783 784 789 786 781 779 775 774 774 774 779 779 778 778 775 773 773 772 773 775 777 779 779 781 781 782 784 785 787 788 788 790 791 793 795 795 796 796 797 799 800 802 803 804 806 808 810 812 813 815 816 817 818 818 819 821 824 826 827 828 829
741 743 749 755 755 755 753 749 750 748 745 743 748 758 762 759 758 756 763 774 777 784 789 781 778 784 789 792 789 786 782 776 776 775 775 779 780 779 779 777 776 776 775 776 776 777 779 780 780 780 780 783 785 787 788 789 790 791 793 795 795 796 797 798 800 800 801 802 803 805 807 809 810 812 813 815 815 817 818 819 821 823 825 826 827 829
740 744 751 759 758 753 748 745 748 750 748 747 753 762 763 761 763 761 762 766 770 779 782 777 779 785 788 792 792 788 784 779 778 779 779 782 783 781 780 779 779 779 779 779 779 779 781 780 780 780 782 785 786 788 790 790 791 791 792 794 794 795 797 798 800 800 801 802 803 805 807 808 809 811 812 813 814 816 818 819 820 821 823 825 827 828
740 748 753 760 766 764 758 754 752 749 749 752 758 764 765 765 766 766 769 767 766 776 776 769 778 787 789 793 793 789 788 784 783 784 783 785 786 784 783 783 783 782 781 781 781 782 782 781 782 784 787 789 789 790 791 791 792 792 792 793 794 795 796 798 799 800 800 801 803 804 806 807 808 810 811 812 814 815 817 818 819 820 822 824 825 827
745 757 755 757 767 770 767 764 759 756 757 760 760 761 765 768 763 761 765 761 763 779 779 767 775 787 791 795 795 795 795 791 790 790 787 789 790 788 787 787 787 787 787 786 786 786 786 786 787 790 792 793 793 794 794 793 792 792 792 793 794 795 796 797 799 800 800 801 802 804 805 806 807 809 810 811 812 814 815 817 818 819 820 822 823 825
750 765 763 758 763 766 764 764 763 761 760 762 761 759 763 771 768 763 763 760 764 778 781 776 780 785 794 803 804 802 802 799 799 797 794 795 794 792 792 791 791 792 791 791 791 791 791 792 793 795 796 796 797 796 796 795 794 793 793 793 794 795 796 797 798 799 800 801 802 803 804 805 806 808 809 810 811 812 814 815 817 818 819 820 821 824
750 764 766 763 768 772 769 768 768 765 764 769 770 765 764 768 767 760 760 769 773 771 776 784 786 788 803 814 811 808 808 805 804 803 801 801 799 797 796 795 794 796 796 796 797 797 798 798 799 799 798 798 797 796 796 796 796 795 795 795 795 796 797 798 798 799 800 801 802 803 804 805 806 808 809 810 811 811 812 814 815 817 818 818 819 822
749 763 767 766 771 774 773 772 771 770 775 783 784 780 770 766 768 764 769 783 779 767 776 791 795 801 813 817 814 812 811 808 807 806 804 803 802 801 800 800 802 804 804 804 805 805 805 805 804 802 801 800 798 797 797 796 797 797 796 796 797 797 798 799 799 800 800 800 801 802 803 805 806 807 808 809 810 810 811 812 813 814 815 815 817 820
750 763 768 769 774 777 775 777 775 773 778 784 789 794 785 777 781 782 787 798 792 786 797 803 804 813 819 816 815 813 811 810 809 807 806 806 807 806 806 807 809 810 810 810 810 810 809 808 807 805 803 802 800 799 798 797 797 798 798 798 798 798 799 800 800 800 800 801 801 802 803 804 805 806 807 807 808 809 809 810 810 811 811 812 814 816
748 763 769 768 776 782 780 781 778 773 776 778 784 796 793 783 787 791 795 801 797 801 811 805 803 817 819 816 817 814 812 812 810 810 812 812 812 811 810 813 814 814 814 814 813 812 811 810 808 807 805 804 803 801 800 799 798 798 799 799 800 800 800 801 801 801 801 801 802 802 803 803 804 805 806 806 806 807 808 808 809 810 810 810 812 814
747 763 771 769 776 785 784 783 781 777 781 783 784 792 792 785 788 795 801 803 799 801 804 796 799 815 819 816 818 816 814 814 814 816 817 816 816 815 814 815 816 816 816 815 814 813 812 811 810 809 808 806 805 804 803 802 801 800 800 800 800 801 801 801 801 801 801 802 802 802 802 803 803 804 804 805 806 806 807 807 808 809 809 810 811 812
755 760 766 768 775 783 785 786 787 784 786 790 792 797 801 799 799 801 806 811 810 806 799 793 802 816 818 817 819 819 818 817 818 820 819 818 819 817 817 818 817 818 817 816 816 815 814 813 812 811 810 808 807 806 805 805 804 803 802 802 801 801 801 802 802 801 802 802 802 802 802 802 803 803 803 804 804 805 806 806 807 808 808 809 810 811
759 758 763 767 770 779 787 789 788 784 784 794 804 806 804 804 803 803 809 816 815 811 807 807 814 819 818 818 819 819 820 821 822 823 822 821 821 819 820 820 819 819 818 817 817 816 815 814 813 812 812 810 809 809 807 807 806 806 805 804 803 803 802 802 802 802 802 802 802 802 802 802 802 802 803 803 804 804 805 805 806 807 807 808 809 811
756 758 765 770 771 781 789 787 783 785 792 804 812 808 802 805 806 806 812 817 815 813 814 814 816 817 818 819 820 819 821 822 822 824 824 823 823 822 821 821 820 820 819 818 818 817 816 815 814 813 812 811 811 810 809 808 808 808 807 806 805 805 804 803 802 802 802 802 802 802 801 801 801 801 802 803 803 804 804 804 805 805 806 807 808 810
755 757 766 776 780 784 785 782 784 795 807 812 811 807 805 805 803 801 805 813 815 815 815 815 817 818 818 819 819 820 821 822 821 823 824 824 824 823 822 822 822 821 820 819 819 817 817 816 815 814 813 813 812 811 810 810 809 809 808 807 807 807 806 805 803 802 802 802 801 801 801 801 801 801 802 802 803 804 804 804 804 805 805 806 807 809
757 757 762 773 784 788 791 801 809 811 813 813 810 808 807 806 804 802 805 813 816 817 817 817 817 818 817 817 819 820 820 819 819 822 824 824 824 824 823 823 823 822 821 821 820 819 818 817 817 816 815 814 813 812 811 811 810 810 809 808 808 808 807 806 804 804 804 803 802 802 801 801 801 801 802 802 803 803 804 804 805 805 806 807 807 809
762 761 758 764 785 797 798 810 820 811 803 806 808 807 808 810 811 808 807 812 817 818 820 820 818 818 817 816 817 819 817 815 817 822 824 824 824 824 823 823 822 822 822 821 820 820 819 818 817 816 815 814 813 812 812 811 811 811 810 809 810 809 808 807 806 805 805 804 804 804 803 802 801 801 801 802 802 803 804 804 805 806 807 808 808 809
766 769 765 762 782 795 786 791 807 805 799 807 811 808 810 812 812 808 806 811 818 821 822 822 820 819 817 815 815 816 813 813 818 823 824 824 824 824 823 823 823 822 822 822 822 821 820 819 818 816 816 815 814 813 812 812 811 811 810 810 810 809 809 808 807 806 805 804 804 804 803 803 802 802 802 802 803 803 804 804 805 806 807 808 809 810
771 775 773 767 778 788 781 786 807 812 809 814 813 809 811 813 810 807 805 810 819 823 823 823 821 820 820 819 817 816 815 817 821 823 823 824 824 824 823 823 823 822 822 822 821 821 820 819 818 817 816 816 815 814 813 812 811 810 810 809 809 809 809 808 807 806 805 804 803 802 803 803 802 802 802 802 803 804 804 805 805 806 807 809 810 811
785 789 791 786 788 793 788 793 811 818 814 814 813 810 811 810 808 807 809 816 823 824 824 824 823 823 824 822 819 819 821 822 823 823 824 824 824 823 823 822 822 822 822 821 821 821 820 819 819 818 817 817 816 815 814 813 811 810 809 809 808 808 808 807 806 806 805 803 802 801 801 801 801 801 800 801 802 803 804 804 805 806 807 808 809 810
793 797 802 801 802 805 803 803 812 817 816 815 814 812 808 806 809 814 819 824 824 822 823 824 823 824 825 824 823 824 825 825 825 825 825 825 824 824 823 822 821 821 821 821 821 820 819 819 819 818 817 817 816 814 813 812 811 810 809 808 807 807 806 806 805 804 803 803 802 801 800 800 800 800 799 800 800 801 802 803 804 805 806 806 808 809
798 801 806 809 811 813 811 809 809 812 815 816 814 812 810 810 815 821 823 825 824 823 824 824 823 824 824 824 824 825 825 826 826 825 825 825 825 824 823 822 822 821 820 820 819 819 819 817 817 816 816 815 815 814 813 811 810 809 808 806 806 805 805 804 803 802 802 801 800 800 799 799 799 799 799 798 798 799 800 801 801 802 803 804 805 807
800 802 806 812 813 807 805 810 815 817 819 817 813 813 816 817 819 821 821 823 824 825 825 824 824 825 825 824 824 824 824 824 825 826 827 826 825 825 824 823 822 821 820 819 819 819 818 817 816 814 813 813 813 812 812 811 809 807 806 805 804 804 803 802 802 801 800 799 798 798 797 798 798 798 798 797 797 798 798 799 799 800 801 802 804 805
803 803 803 811 819 815 811 817 822 822 821 818 815 817 819 819 820 821 821 822 824 825 825 825 825 825 825 825 825 824 824 825 825 826 826 826 826 825 824 823 823 822 821 820 818 818 817 816 815 813 811 811 811 810 810 809 808 806 804 803 802 802 801 800 799 799 798 797 796 795 795 795 795 796 796 797 797 797 797 797 799 799 799 800 802 803
808 807 806 813 821 821 819 822 824 822 822 822 819 820 821 820 821 822 822 823 825 825 826 827 826 826 827 827 827 827 827 827 826 826 826 825 825 824 823 822 822 821 820 819 818 817 816 814 813 812 810 808 808 808 807 807 806 805 803 802 801 800 799 798 797 796 795 795 795 794 793 793 793 793 794 794 795 796 797 797 798 799 799 799 800 802
808 807 810 816 819 819 820 824 825 824 824 824 822 823 823 823 823 824 823 825 825 826 827 828 828 829 830 830 830 829 829 829 828 827 827 826 825 824 823 821 820 819 819 818 816 815 814 813 811 810 808 806 805 805 804 803 802 801 800 800 799 798 797 796 794 793 793 792 792 792 792 791 791 791 791 791 792 794 795 796 797 798 798 799 799 800
807 806 811 817 819 819 821 823 824 824 824 824 824 823 823 823 824 824 825 826 826 827 829 829 829 831 831 831 832 831 830 831 830 829 828 827 825 824 823 821 820 818 816 815 814 813 812 810 809 808 806 804 803 803 801 799 798 797 797 796 796 796 794 793 791 791 790 789 789 789 789 789 789 789 789 788 789 790 791 793 794 795 795 796 796 797
809 808 813 818 821 823 824 824 825 825 824 824 824 824 824 824 825 825 826 827 828 829 830 830 830 831 831 831 832 831 830 830 829 829 828 826 825 823 822 820 819 817 815 814 812 811 809 808 806 804 803 801 800 799 798 796 794 793 793 792 792 792 792 790 788 788 787 786 786 786 786 786 786 787 787 786 786 787 788 790 791 792 792 793 793 794
810 812 817 820 821 823 821 820 822 822 822 822 823 823 824 825 825 826 827 827 828 829 830 830 830 830 830 830 830 830 830 829 829 828 828 826 824 823 821 819 817 815 814 812 810 809 808 806 804 802 799 798 797 796 794 792 791 790 789 789 788 788 788 786 785 784 783 783 783 782 783 783 784 784 785 785 785 785 786 787 788 789 790 792 793 793
811 812 814 814 815 816 815 817 819 819 819 821 822 822 824 825 825 826 827 827 828 829 828 829 829 829 829 829 829 829 829 829 828 828 827 825 823 821 820 818 816 814 812 810 808 807 805 803 801 799 797 795 794 792 790 788 787 786 785 785 784 784 783 782 781 780 779 779 779 779 779 780 781 781 782 783 783 783 784 785 787 788 788 789 790 791